This is the latest recevied weather packets stored in our database for station/object KU9TRY. If no packets are shown the sender has not sent any weather packets the latest 10 day(s).
| Time | Temp. | Humidity | Pressure | Rain* | Wind** | Luminosity | Snow |
|---|---|---|---|---|---|---|---|
| 1788011684 | 24.44° C | 77% | 1021.1 hPa | 0 mm | - | 184 W/m² | - |
| 1788011380 | 24.44° C | 78% | 1021.1 hPa | 0 mm | - | 369 W/m² | - |
| 1788011079 | 23.89° C | 80% | 1020.9 hPa | 0 mm | - | 283 W/m² | - |
| 1788010775 | 23.33° C | 80% | 1020.9 hPa | 0 mm | - | 117 W/m² | - |
| 1788010473 | 23.33° C | 81% | 1020.9 hPa | 0 mm | - | 343 W/m² | - |
| 1788010168 | 22.78° C | 82% | 1020.8 hPa | 0 mm | - | 83 W/m² | - |
| 1788009862 | 22.78° C | 83% | 1020.9 hPa | 0 mm | - | 89 W/m² | - |
| 1788009560 | 22.22° C | 86% | 1021.1 hPa | 0 mm | - | 82 W/m² | - |
| 1788009256 | 21.67° C | 87% | 1020.8 hPa | 0 mm | - | 87 W/m² | - |
| 1788008955 | 21.11° C | 89% | 1020.8 hPa | 0 mm | - | 88 W/m² | - |
| 1788008652 | 21.11° C | 91% | 1020.8 hPa | 0 mm | - | 83 W/m² | - |
| 1788008349 | 20.56° C | 93% | 1020.8 hPa | 0 mm | - | 86 W/m² | - |
| 1788008047 | 20° C | 94% | 1020.8 hPa | 0 mm | - | 90 W/m² | - |
| 1788007746 | 19.44° C | 94% | 1020.7 hPa | 0 mm | - | 87 W/m² | - |
| 1788007442 | 19.44° C | 94% | 1020.5 hPa | 0 mm | - | 84 W/m² | - |
| 1788007141 | 18.89° C | 95% | 1020.6 hPa | 0 mm | - | 79 W/m² | - |
| 1788006840 | 18.89° C | 97% | 1020.6 hPa | 0 mm | - | 72 W/m² | - |
| 1788006535 | 18.33° C | 97% | 1020.5 hPa | 0 mm | - | 65 W/m² | - |
| 1788006229 | 18.33° C | 97% | 1020.4 hPa | 0 mm | - | 60 W/m² | - |
| 1788005928 | 17.78° C | 98% | 1020.7 hPa | 0 mm | - | 56 W/m² | - |
| 1788005623 | 17.78° C | 98% | 1020.8 hPa | 0 mm | - | 56 W/m² | - |
| 1788005323 | 17.78° C | 99% | 1020.7 hPa | 0 mm | - | 64 W/m² | - |
| 1788005022 | 17.22° C | 99% | 1020.6 hPa | 0 mm | - | 51 W/m² | - |
| 1788004720 | 17.22° C | 99% | 1020.6 hPa | 0 mm | - | 42 W/m² | - |
| 1788004415 | 17.22° C | 99% | 1020.4 hPa | 0 mm | - | 35 W/m² | - |
* Rain latest hour (hover to see other rain measurements)
** Current wind speed in m/s (hover to see current wind gust speed)